Regional Weather Roundup
Issued by NWS

Home | Current Version | Previous Version | Graphics & Text | Print | Product List | Glossary On
Versions: 1 2 3 4 5 6 7 8 9 10 11 12 13 14 15 16 17 18 19 20 21 22 23 24 25 26 27 28 29 30 31 32 33 34 35 36 37 38 39 40 41 42 43 44 45 46 47 48 49 50
000
ASUS43 KMKX 260021
RWRWI

WISCONSIN REGIONAL WEATHER ROUNDUP
NATIONAL WEATHER SERVICE MILWAUKEE/SULLIVAN WI
700 PM CDT SAT APR 25 2015

NOTE: "FAIR" INDICATES FEW OR NO CLOUDS BELOW 12,000 FEET WITH NO
SIGNIFICANT WEATHER AND/OR OBSTRUCTIONS TO VISIBILITY.

WIZ001-002-006>008-014>016-023>028-260100-
NORTHWEST WISCONSIN

CITY           SKY/WX    TMP DP  RH WIND       PRES   REMARKS
SUPERIOR ARPT  SUNNY     38  27  64 NE12G17   30.02S WCI  31
6HR MIN TEMP:  38; 6HR MAX TEMP:  41;

ASHLAND        CLEAR     41  26  55 NE12      30.02R
6HR MIN TEMP:  41; 6HR MAX TEMP:  47;

HAYWARD        SUNNY     47  21  35 N14       29.94R
6HR MIN TEMP:  47; 6HR MAX TEMP:  57;

SIREN          SUNNY     54  26  33 NE13G21   29.92R
6HR MIN TEMP:  54; 6HR MAX TEMP:  61;

CUMBERLAND     SUNNY     54  28  37 NE14      29.88R
RICE LAKE      SUNNY     56  28  34 N17       29.89R
6HR MIN TEMP:  56; 6HR MAX TEMP:  62;

CHETEK         SUNNY     58  30  34 N6        29.87R
6HR MIN TEMP:  55; 6HR MAX TEMP:  60;

LADYSMITH      CLEAR     54  27  35 N13       29.90R
6HR MIN TEMP:  55; 6HR MAX TEMP:  61;

EAU CLAIRE     SUNNY     60  19  20 NE14      29.85R
6HR MIN TEMP:  54; 6HR MAX TEMP:  62;

MENOMONIE      SUNNY     59  17  19 NE5       29.87R
6HR MIN TEMP:  55; 6HR MAX TEMP:  62;

NEW RICHMOND   SUNNY     60  19  20 NE8       29.87S
6HR MIN TEMP:  55; 6HR MAX TEMP:  61;

OSCEOLA        SUNNY     60  24  25 NE10      29.90R
6HR MIN TEMP:  56; 6HR MAX TEMP:  62;

$$

WIZ003>005-009-010-017-018-260100-
NORTH CENTRAL WISCONSIN

CITY           SKY/WX    TMP DP  RH WIND       PRES   REMARKS
MANITOWISH WTR CLEAR     49  15  25 NE9       29.91R
6HR MIN TEMP:  49; 6HR MAX TEMP:  55;

ARBOR VITAE    CLEAR     52  15  23 NE9       29.90R
6HR MIN TEMP:  52; 6HR MAX TEMP:  57;

WOODRUFF       CLEAR     52  15  23 NE9       29.90R
6HR MIN TEMP:  52; 6HR MAX TEMP:  57;

RHINELANDER    CLEAR     53  11  18 E8        29.89R
6HR MIN TEMP:  49; 6HR MAX TEMP:  56;

EAGLE RIVER    CLEAR     51  12  20 NE13      29.89R
6HR MIN TEMP:  51; 6HR MAX TEMP:  56;

LAND O LAKES   CLEAR     49  18  30 NE10      29.92R
6HR MIN TEMP:  49; 6HR MAX TEMP:  56;

PHILLIPS       CLEAR     53  25  33 N13G18    29.89R
6HR MIN TEMP:  53; 6HR MAX TEMP:  57;

TOMAHAWK       CLEAR     55  16  22 CALM      29.88R
6HR MIN TEMP:  52; 6HR MAX TEMP:  58;

MEDFORD        CLEAR     55  22  27 NE3       29.86R
6HR MIN TEMP:  53; 6HR MAX TEMP:  58;

MERRILL        CLEAR     55  16  21 E8        29.86S
6HR MIN TEMP:  53; 6HR MAX TEMP:  58;

$$

WIZ029-030-035-036-043>047-260100-
CENTRAL WISCONSIN

CITY           SKY/WX    TMP DP  RH WIND       PRES   REMARKS
WAUSAU         CLEAR     54  12  18 E8        29.85R
6HR MIN TEMP:  53; 6HR MAX TEMP:  58;

MOSINEE        CLEAR     52  16  24 E10       29.87R
MARSHFIELD     PTCLDY    56  18  22 E8        29.85R
6HR MIN TEMP:  54; 6HR MAX TEMP:  59;

STEVENS POINT  PTCLDY    49  17  28 E12       29.88R
6HR MIN TEMP:  49; 6HR MAX TEMP:  55;

WAUPACA        PTCLDY    50   8  18 NE6       29.90R
6HR MIN TEMP:  50; 6HR MAX TEMP:  57;

WAUTOMA        MOCLDY    50   5  16 NE9       29.89R
6HR MIN TEMP:  50; 6HR MAX TEMP:  55;

WISC RAPIDS    PTCLDY    53  12  19 SE12      29.88R
6HR MIN TEMP:  53; 6HR MAX TEMP:  57;

CAMP DOUGLAS   PTCLDY    53   8  16 E12       29.86R
6HR MIN TEMP:  51; 6HR MAX TEMP:  58;

$$

WIZ011>013-019>022-031-037>040-048>050-260100-
NORTHEAST WISCONSIN

CITY           SKY/WX    TMP DP  RH WIND       PRES   REMARKS
ANTIGO         CLEAR     50  20  30 E13       29.87S
SHAWANO        CLEAR     48  13  24 E9        29.91S
6HR MIN TEMP:  48; 6HR MAX TEMP:  56;

OCONTO         CLEAR     46  19  34 NE7       29.91S
6HR MIN TEMP:  45; 6HR MAX TEMP:  48;

STURGEON BAY   CLEAR     46  18  31 NE9       29.93S
6HR MIN TEMP:  43; 6HR MAX TEMP:  46;

GREEN BAY      PTCLDY    46  15  28 NE14      29.90S
6HR MIN TEMP:  46; 6HR MAX TEMP:  51;

MANITOWOC      MOCLDY    43  22  43 NE13G22   29.88S
6HR MIN TEMP:  43; 6HR MAX TEMP:  47;

APPLETON       PTCLDY    46   7  19 NE9       29.88S
CLINTONVILLE   PTCLDY    46  14  27 NE8       29.89S
OSHKOSH        MOCLDY    47  25  42 NE16      29.88R
6HR MIN TEMP:  47; 6HR MAX TEMP:  52;

$$

WIZ032>034-041-042-053>061-260100-
SOUTHWEST WISCONSIN

CITY           SKY/WX    TMP DP  RH WIND       PRES   REMARKS
LA CROSSE      CLEAR     58  16  19 E10       29.85R
6HR MIN TEMP:  52; 6HR MAX TEMP:  61;

SPARTA         PTCLDY    55  12  18 E12       29.87R
6HR MIN TEMP:  51; 6HR MAX TEMP:  58;

VIROQUA        CLEAR     51  23  34 E9        29.85R
6HR MIN TEMP:  49; 6HR MAX TEMP:  55;

BOSCOBEL       CLOUDY    52  26  36 E7        29.85S
6HR MIN TEMP:  51; 6HR MAX TEMP:  54;

PRAIRIE DU CHI CLOUDY    51  30  44 E8        29.85R
6HR MIN TEMP:  49; 6HR MAX TEMP:  53;

PLATTEVILLE    CLOUDY    48  36  63 NE10G16   29.84R
6HR MIN TEMP:  46; 6HR MAX TEMP:  51;

$$

WIZ056-057-062-063-064-067-068-260100-
SOUTH CENTRAL WISCONSIN

CITY           SKY/WX    TMP DP  RH WIND       PRES   REMARKS
REEDSBURG      PTCLDY    51  22  32 NE9       29.86R
6HR MIN TEMP:  48; 6HR MAX TEMP:  53;

BARABOO/DELLS  PTCLDY    51  19  29 E10       29.86R
6HR MIN TEMP:  48; 6HR MAX TEMP:  53;

LONE ROCK      CLOUDY    51  30  44 E6        29.84S
6HR MIN TEMP:  50; 6HR MAX TEMP:  53;

MINERAL POINT  CLOUDY    48  32  53 E7        29.84R
MADISON        MOCLDY    50  27  40 E13       29.84R
6HR MIN TEMP:  48; 6HR MAX TEMP:  51;

MIDDLETON      MOCLDY    49  29  45 NE6       29.85R
6HR MIN TEMP:  49; 6HR MAX TEMP:  52;

WATERTOWN      PTCLDY    47  25  41 NE7       29.84R
6HR MIN TEMP:  46; 6HR MAX TEMP:  49; 6HR PCP:  0.01;

MONROE         CLOUDY    45  36  70 NE14      29.83R
JANESVILLE     CLOUDY    46  32  57 NE10      29.84R
$$

WIZ051-052-058>065-066-070>072-260100-
SOUTHEAST WISCONSIN

CITY           SKY/WX    TMP DP  RH WIND       PRES   REMARKS
MILWAUKEE      MOCLDY    39  26  59 N16G26    29.86R WCI  30
6HR MIN TEMP:  39; 6HR MAX TEMP:  40;

WAUKESHA       MOCLDY    43  25  49 NE9       29.84R
MILWAUKEE/TIMM PTCLDY    45  23  42 NE9G16    29.85R
RACINE         CLOUDY    39  29  67 N17       29.85R WCI  30
6HR MIN TEMP:  39; 6HR MAX TEMP:  41;

BURLINGTON     CLOUDY    41  24  51 NE14      29.84R
6HR MIN TEMP:  40; 6HR MAX TEMP:  43;

KENOSHA        CLOUDY    41  29  62 N12       29.84R
6HR MIN TEMP:  41; 6HR MAX TEMP:  46; 6HR PCP:  0.01;

FOND DU LAC    PTCLDY    49  14  24 NE12      29.87R
6HR MIN TEMP:  49; 6HR MAX TEMP:  55;

SHEBOYGAN      MOCLDY    43  17  35 NE16      29.87R
6HR MIN TEMP:  43; 6HR MAX TEMP:  49;

WEST BEND      CLOUDY    45  21  39 NE10      29.84S
JUNEAU         PTCLDY    47  20  34 N9        29.86R
6HR MIN TEMP:  47; 6HR MAX TEMP:  50;

$$

LSZ147-162-260100-
LAKE SUPERIOR

STATION/POSITION TIME  TEMP    WIND        PRES    WAVE
                       AIR SEA DIR/SP/G            HT/PER
                 (UTC) (F)     (DEG/KT/KT) (MB)    (FT/S)
W MID LAKE BUOY  2350   36 35   70/  8/ 10 1018.0R   2/ 5
DEVILS ISLAND    0000   37      70/ 12/ 13 1017.5R
PORT WING        2340   38      20/ 14/ 16 1016.6R
SAXON HARBOR     2340   38      30/ 13/ 16 1015.9R
$$

LMZ867-665-643>646-260100-
LAKE MICHIGAN

STATION/POSITION TIME  TEMP    WIND        PRES    WAVE



USA.gov is the U.S. government's official web portal to all federal, state and local government web resources and services.